Location: Stull Observatory
(42.2506°N, 77.7903°W)
Time: 20:15:27
(UTC-04:00)

Okean O Rocket - Visible Passes

Search period start: 01 August 2015 00:00
Search period end: 11 August 2015 00:00
Orbit: 623 x 647 km, 98.0° (Epoch: 31 July)

Date Brightness Start Highest point End Pass type
(mag) Time Alt. Az. Time Alt. Az. Time Alt. Az.
01 Aug 3.1 03:48:23 10° NE 03:52:14 30° E 03:55:15 15° SSE visible
01 Aug 2.9 05:24:59 10° NNW 05:28:34 25° WNW 05:32:03 10° WSW visible
02 Aug 2.2 04:09:59 10° NNE 04:14:15 53° E 04:17:21 18° S visible
03 Aug 1.5 04:31:49 10° NNE 04:36:11 88° WNW 04:39:27 18° SSW visible
04 Aug 4.1 03:18:53 10° ENE 03:21:15 15° E 03:23:48 10° SE visible
04 Aug 1.9 04:53:49 10° N 04:58:02 50° WNW 05:01:32 14° SW visible
05 Aug 3.5 03:39:50 10° NE 03:43:23 25° E 03:46:09 14° SE visible
05 Aug 2.6 05:16:02 10° N 05:19:51 30° WNW 05:23:37 10° SW visible
06 Aug 2.6 04:01:19 10° NNE 04:05:27 42° E 04:08:15 19° SSE visible
07 Aug 1.7 04:23:02 10° NNE 04:27:24 74° ESE 04:30:20 20° S visible
08 Aug 4.3 03:10:54 10° ENE 03:12:21 12° E 03:14:04 10° ESE visible
08 Aug 1.6 04:44:58 10° N 04:49:18 63° WNW 04:52:26 18° SSW visible
09 Aug 3.8 03:31:21 10° NE 03:34:32 20° E 03:37:02 13° SE visible
09 Aug 2.3 05:07:06 10° N 05:11:07 37° WNW 05:14:31 13° SW visible
10 Aug 3.0 03:52:40 10° NNE 03:56:37 34° E 03:59:08 19° SSE visible
10 Aug 3.0 05:29:27 10° NNW 05:32:54 23° WNW 05:36:15 10° WSW visible
